Hourly Weather Aljezur Municipality

Today, 5 December, Saturday

Time Temperature Precipitation Wind Pressure Humidity
00:00 +6°C° 0.6 mm 10 mps 745 mmHg 78%
01:00 +6°C° 0.6 mm 9 mps 745 mmHg 79%
02:00 +6°C° 0.6 mm 9 mps 746 mmHg 80%
03:00 +6°C° 0.4 mm 8 mps 746 mmHg 80%
04:00 +6°C° 0.4 mm 8 mps 746 mmHg 80%
05:00 +6°C° 0.4 mm 8 mps 747 mmHg 80%
06:00 +6°C° 0.2 mm 8 mps 747 mmHg 79%
07:00 +6°C° 0.2 mm 7 mps 748 mmHg 78%
08:00 +8°C° 0.2 mm 7 mps 749 mmHg 77%
09:00 +9°C° 0.1 mm 7 mps 749 mmHg 71%
10:00 +10°C° 0.1 mm 7 mps 750 mmHg 64%
11:00 +11°C° 0.1 mm 7 mps 750 mmHg 58%
12:00 +11°C° 0.1 mm 7 mps 750 mmHg 58%
13:00 +12°C° 0.1 mm 7 mps 750 mmHg 57%
14:00 +12°C° 0.1 mm 7 mps 750 mmHg 57%
15:00 +11°C° 0 mm 7 mps 750 mmHg 62%
16:00 +9°C° 0 mm 6 mps 751 mmHg 67%
17:00 +8°C° 0 mm 6 mps 751 mmHg 71%
18:00 +8°C° 0.1 mm 6 mps 751 mmHg 74%
19:00 +8°C° 0.1 mm 6 mps 752 mmHg 77%
20:00 +7°C° 0.1 mm 6 mps 753 mmHg 80%
21:00 +7°C° 0.2 mm 5 mps 753 mmHg 81%
22:00 +7°C° 0.2 mm 5 mps 753 mmHg 82%
23:00 +7°C° 0.2 mm 5 mps 753 mmHg 84%

Tomorrow, 6 December, Sunday

Time Temperature Precipitation Wind Pressure Humidity
00:00 +7°C° 0.1 mm 5 mps 753 mmHg 82%
01:00 +8°C° 0.1 mm 5 mps 753 mmHg 80%
02:00 +8°C° 0.1 mm 5 mps 753 mmHg 79%
03:00 +8°C° 0 mm 5 mps 753 mmHg 80%
04:00 +7°C° 0 mm 4 mps 753 mmHg 82%
05:00 +7°C° 0 mm 4 mps 752 mmHg 84%
06:00 +7°C° 0.1 mm 4 mps 753 mmHg 82%
07:00 +8°C° 0.1 mm 4 mps 753 mmHg 80%
08:00 +10°C° 0.1 mm 4 mps 754 mmHg 78%
09:00 +11°C° 0.1 mm 4 mps 754 mmHg 75%
10:00 +12°C° 0.1 mm 4 mps 754 mmHg 72%
11:00 +13°C° 0.1 mm 4 mps 754 mmHg 69%
12:00 +13°C° 0 mm 5 mps 754 mmHg 67%
13:00 +14°C° 0 mm 5 mps 754 mmHg 66%
14:00 +14°C° 0 mm 5 mps 753 mmHg 65%
15:00 +13°C° 0 mm 5 mps 753 mmHg 70%
16:00 +12°C° 0 mm 5 mps 754 mmHg 76%
17:00 +10°C° 0 mm 4 mps 754 mmHg 81%
18:00 +10°C° 0.2 mm 5 mps 754 mmHg 83%
19:00 +10°C° 0.2 mm 5 mps 754 mmHg 86%
20:00 +12°C° 0.2 mm 5 mps 755 mmHg 88%
21:00 +12°C° 0.3 mm 5 mps 755 mmHg 88%
22:00 +11°C° 0.3 mm 6 mps 754 mmHg 88%
23:00 +11°C° 0.3 mm 6 mps 754 mmHg 88%

Day after tomorrow, 7 December, Monday

Time Temperature Precipitation Wind Pressure Humidity
00:00 +11°C° 0.2 mm 6 mps 754 mmHg 89%
01:00 +11°C° 0.2 mm 6 mps 754 mmHg 89%
02:00 +11°C° 0.2 mm 6 mps 754 mmHg 90%
03:00 +11°C° 0.2 mm 6 mps 754 mmHg 90%
04:00 +13°C° 0.2 mm 6 mps 754 mmHg 89%
05:00 +12°C° 0.2 mm 7 mps 754 mmHg 89%
06:00 +12°C° 0.2 mm 7 mps 754 mmHg 88%
07:00 +14°C° 0.2 mm 7 mps 754 mmHg 87%
08:00 +14°C° 0.2 mm 7 mps 754 mmHg 86%
09:00 +15°C° 0.1 mm 7 mps 755 mmHg 81%
10:00 +15°C° 0.1 mm 7 mps 755 mmHg 76%
11:00 +16°C° 0.1 mm 7 mps 755 mmHg 71%
12:00 +16°C° 0 mm 7 mps 755 mmHg 70%
13:00 +16°C° 0 mm 7 mps 754 mmHg 69%
14:00 +15°C° 0 mm 7 mps 754 mmHg 68%
15:00 +14°C° 0 mm 7 mps 754 mmHg 73%
16:00 +14°C° 0 mm 6 mps 755 mmHg 77%
17:00 +13°C° 0 mm 5 mps 755 mmHg 81%
18:00 +13°C° 0 mm 5 mps 755 mmHg 80%
19:00 +13°C° 0 mm 5 mps 755 mmHg 80%
20:00 +13°C° 0 mm 5 mps 756 mmHg 80%
21:00 +13°C° 0 mm 5 mps 756 mmHg 81%
22:00 +13°C° 0 mm 6 mps 756 mmHg 82%
23:00 +11°C° 0 mm 6 mps 755 mmHg 82%

8 December, Tuesday

Time Temperature Precipitation Wind Pressure Humidity
00:00 +11°C° 0 mm 6 mps 755 mmHg 83%
01:00 +11°C° 0 mm 6 mps 755 mmHg 83%
02:00 +12°C° 0 mm 5 mps 755 mmHg 84%
03:00 +13°C° 0.1 mm 5 mps 755 mmHg 84%
04:00 +13°C° 0.1 mm 5 mps 755 mmHg 85%
05:00 +13°C° 0.1 mm 5 mps 755 mmHg 86%
06:00 +14°C° 0.5 mm 6 mps 755 mmHg 87%
07:00 +14°C° 0.5 mm 6 mps 756 mmHg 88%
08:00 +14°C° 0.5 mm 7 mps 756 mmHg 89%
09:00 +15°C° 0 mm 7 mps 756 mmHg 85%
10:00 +15°C° 0 mm 6 mps 756 mmHg 80%
11:00 +15°C° 0 mm 6 mps 756 mmHg 76%
12:00 +15°C° 0 mm 6 mps 756 mmHg 77%
13:00 +15°C° 0 mm 6 mps 756 mmHg 77%
14:00 +15°C° 0 mm 6 mps 755 mmHg 78%
15:00 +15°C° 0.1 mm 6 mps 755 mmHg 80%
16:00 +15°C° 0.1 mm 6 mps 755 mmHg 83%
17:00 +14°C° 0.1 mm 6 mps 755 mmHg 85%
18:00 +14°C° 0.4 mm 7 mps 755 mmHg 86%
19:00 +14°C° 0.4 mm 7 mps 756 mmHg 88%
20:00 +14°C° 0.4 mm 7 mps 756 mmHg 89%
21:00 +14°C° 0.3 mm 7 mps 756 mmHg 89%
22:00 +14°C° 0.3 mm 7 mps 756 mmHg 90%
23:00 +14°C° 0.3 mm 6 mps 756 mmHg 90%

9 December, Wednesday

Time Temperature Precipitation Wind Pressure Humidity
00:00 +13°C° 0.1 mm 6 mps 756 mmHg 92%
01:00 +12°C° 0.1 mm 5 mps 756 mmHg 93%
02:00 +12°C° 0.1 mm 5 mps 756 mmHg 95%
03:00 +10°C° 0 mm 5 mps 756 mmHg 93%
04:00 +11°C° 0 mm 4 mps 756 mmHg 92%
05:00 +11°C° 0 mm 4 mps 756 mmHg 90%
06:00 +11°C° 0 mm 4 mps 756 mmHg 89%
07:00 +11°C° 0 mm 3 mps 757 mmHg 87%
08:00 +11°C° 0 mm 3 mps 757 mmHg 86%
09:00 +12°C° 0 mm 3 mps 757 mmHg 78%
10:00 +14°C° 0 mm 2 mps 757 mmHg 71%
11:00 +16°C° 0 mm 2 mps 758 mmHg 64%
12:00 +16°C° 0 mm 2 mps 757 mmHg 63%
13:00 +16°C° 0 mm 2 mps 756 mmHg 63%
14:00 +16°C° 0 mm 3 mps 756 mmHg 62%
15:00 +14°C° 0 mm 3 mps 756 mmHg 68%
16:00 +13°C° 0 mm 3 mps 756 mmHg 74%
17:00 +12°C° 0 mm 3 mps 756 mmHg 80%
18:00 +12°C° 0 mm 3 mps 756 mmHg 83%
19:00 +12°C° 0 mm 3 mps 756 mmHg 85%
20:00 +13°C° 0 mm 3 mps 756 mmHg 87%
21:00 +13°C° 0.2 mm 4 mps 756 mmHg 89%
22:00 +13°C° 0.2 mm 4 mps 756 mmHg 90%
23:00 +13°C° 0.2 mm 4 mps 756 mmHg 92%

10 December, Thursday

Time Temperature Precipitation Wind Pressure Humidity
00:00 +13°C° 0.1 mm 5 mps 755 mmHg 91%
01:00 +13°C° 0.1 mm 5 mps 755 mmHg 91%
02:00 +13°C° 0.1 mm 5 mps 754 mmHg 90%
03:00 +13°C° 0 mm 6 mps 754 mmHg 89%
04:00 +14°C° 0 mm 6 mps 753 mmHg 88%
05:00 +14°C° 0 mm 6 mps 753 mmHg 86%
06:00 +14°C° 0 mm 7 mps 753 mmHg 86%
07:00 +15°C° 0 mm 8 mps 752 mmHg 86%
08:00 +15°C° 0 mm 8 mps 752 mmHg 86%
09:00 +16°C° 0.3 mm 9 mps 752 mmHg 86%
10:00 +16°C° 0.3 mm 9 mps 752 mmHg 86%
11:00 +16°C° 0.3 mm 10 mps 751 mmHg 85%
12:00 +16°C° 0.7 mm 10 mps 750 mmHg 88%
13:00 +16°C° 0.7 mm 11 mps 750 mmHg 90%
14:00 +16°C° 0.7 mm 11 mps 749 mmHg 92%
15:00 +16°C° 0.9 mm 11 mps 749 mmHg 92%
16:00 +15°C° 0.9 mm 12 mps 748 mmHg 92%
17:00 +15°C° 0.9 mm 12 mps 748 mmHg 92%
18:00 +17°C° 0.8 mm 12 mps 748 mmHg 91%
19:00 +17°C° 0.8 mm 12 mps 748 mmHg 90%
20:00 +17°C° 0.8 mm 12 mps 748 mmHg 89%
21:00 +17°C° 0.3 mm 12 mps 748 mmHg 90%
22:00 +17°C° 0.3 mm 12 mps 748 mmHg 90%
23:00 +17°C° 0.3 mm 12 mps 747 mmHg 91%
Show more